Tracking 28911 objects as of 22-May-2024
HD Live streaming from Space Station
objects crossing your sky now

OBJECT AM

Track OBJECT AM now!
10-day predictions
OBJECT AM is classified as:


NORAD ID: 57201
Int'l Code: 2023-091AM
Perigee: 534.3 km
Apogee: 551.6 km
Inclination: 97.6 °
Period: 95.4 minutes
Semi major axis: 6913 km
RCS: Unknown
Launch date: June 27, 2023
Source: (TBD)
Launch site: VOSTOCHNY COSMODROME (VOSTO)

Uplink (MHz):
Downlink (MHz): 401.260
Beacon (MHz):
Mode: 2k4 GMSK_USP
Call sign: SC2211
Status: Active

Your satellite tracking list
Your tracking list is empty




NASA's NSSDC Master Catalog

Two Line Element Set (TLE):
1 57201U 23091AM  24142.91147209  .00014232  00000-0  87407-3 0  9997
2 57201  97.6148 196.2099 0012475 194.2376 165.8504 15.10132454 49591
Source of the keplerian elements: AFSPC